When you browse on this site, cookies collect data to enhance your experience and personalize the content and advertising you see.
Visit our Privacy Policy to learn more. By continuing to use the site, you agree to this use of cookies and data.
  • en Suisse
  • Liste des pays
  • À 7 jours
  • Température de l'eau
  • Carte satellitaire
  • Carte météo
  • Widgets météo
  • user-avatar
    Se connecter

    Météo par heure à Seredivka

    Ce jour, 18 Novembre, Dimanche

    Heure Température Précipitation Vent Pression Humidité
    00:00 -2°C° 0 mm 1 m/s 763 mmHg 57%
    01:00 -2°C° 0 mm 1 m/s 762 mmHg 57%
    02:00 -3°C° 0 mm 1 m/s 762 mmHg 59%
    03:00 -3°C° 0 mm 1 m/s 761 mmHg 61%
    04:00 -3°C° 0 mm 1 m/s 761 mmHg 62%
    05:00 -4°C° 0 mm 1 m/s 760 mmHg 63%
    06:00 -4°C° 0 mm 1 m/s 760 mmHg 65%
    07:00 -4°C° 0 mm 1 m/s 759 mmHg 67%
    08:00 -6°C° 0 mm 2 m/s 759 mmHg 69%
    09:00 -5°C° 0 mm 2 m/s 758 mmHg 66%
    10:00 -2°C° 0 mm 1 m/s 758 mmHg 63%
    11:00 -1°C° 0 mm 1 m/s 758 mmHg 59%
    12:00 0°C° 0 mm 1 m/s 757 mmHg 61%
    13:00 0°C° 0 mm 1 m/s 757 mmHg 62%
    14:00 0°C° 0 mm 1 m/s 757 mmHg 64%
    15:00 -1°C° 0 mm 1 m/s 757 mmHg 67%
    16:00 -2°C° 0 mm 1 m/s 756 mmHg 71%
    17:00 -3°C° 0 mm 1 m/s 756 mmHg 75%
    18:00 -3°C° 0 mm 1 m/s 756 mmHg 75%
    19:00 -3°C° 0 mm 1 m/s 756 mmHg 75%
    20:00 -4°C° 0 mm 0 m/s 756 mmHg 75%
    21:00 -3°C° 0 mm 1 m/s 756 mmHg 75%
    22:00 -3°C° 0 mm 1 m/s 757 mmHg 75%
    23:00 -3°C° 0 mm 1 m/s 757 mmHg 75%

    Demain, 19 Novembre, Lundi

    Heure Température Précipitation Vent Pression Humidité
    00:00 -3°C° 0 mm 1 m/s 757 mmHg 74%
    01:00 -3°C° 0 mm 1 m/s 757 mmHg 74%
    02:00 -3°C° 0 mm 1 m/s 757 mmHg 74%
    03:00 -5°C° 0 mm 2 m/s 757 mmHg 73%
    04:00 -5°C° 0 mm 2 m/s 757 mmHg 73%
    05:00 -5°C° 0 mm 2 m/s 757 mmHg 72%
    06:00 -5°C° 0 mm 2 m/s 757 mmHg 71%
    07:00 -5°C° 0 mm 2 m/s 757 mmHg 71%
    08:00 -5°C° 0 mm 2 m/s 757 mmHg 70%
    09:00 -5°C° 0 mm 3 m/s 757 mmHg 67%
    10:00 -4°C° 0 mm 3 m/s 758 mmHg 63%
    11:00 -2°C° 0 mm 3 m/s 758 mmHg 60%
    12:00 -2°C° 0 mm 3 m/s 758 mmHg 60%
    13:00 -2°C° 0 mm 4 m/s 757 mmHg 60%
    14:00 -2°C° 0 mm 4 m/s 757 mmHg 60%
    15:00 -3°C° 0 mm 4 m/s 757 mmHg 61%
    16:00 -3°C° 0 mm 4 m/s 757 mmHg 63%
    17:00 -4°C° 0 mm 4 m/s 757 mmHg 64%
    18:00 -4°C° 0 mm 4 m/s 757 mmHg 63%
    19:00 -4°C° 0 mm 4 m/s 757 mmHg 61%
    20:00 -4°C° 0 mm 4 m/s 757 mmHg 60%
    21:00 -4°C° 0 mm 4 m/s 757 mmHg 60%
    22:00 -4°C° 0 mm 4 m/s 757 mmHg 61%
    23:00 -4°C° 0 mm 4 m/s 757 mmHg 62%

    Après-demain, 20 Novembre, Mardi

    Heure Température Précipitation Vent Pression Humidité
    00:00 -5°C° 0 mm 5 m/s 757 mmHg 64%
    01:00 -5°C° 0 mm 5 m/s 757 mmHg 65%
    02:00 -5°C° 0 mm 5 m/s 757 mmHg 67%
    03:00 -5°C° 0 mm 5 m/s 757 mmHg 70%
    04:00 -5°C° 0 mm 5 m/s 756 mmHg 72%
    05:00 -5°C° 0 mm 5 m/s 756 mmHg 74%
    06:00 -4°C° 0 mm 5 m/s 757 mmHg 76%
    07:00 -4°C° 0 mm 5 m/s 757 mmHg 78%
    08:00 -4°C° 0 mm 5 m/s 757 mmHg 80%
    09:00 -4°C° 0 mm 5 m/s 757 mmHg 78%
    10:00 -2°C° 0 mm 5 m/s 757 mmHg 77%
    11:00 -2°C° 0 mm 5 m/s 757 mmHg 76%
    12:00 -2°C° 0 mm 5 m/s 757 mmHg 76%
    13:00 -1°C° 0 mm 5 m/s 757 mmHg 77%
    14:00 -1°C° 0 mm 5 m/s 757 mmHg 77%
    15:00 -2°C° 0 mm 4 m/s 757 mmHg 81%
    16:00 -3°C° 0 mm 4 m/s 757 mmHg 85%
    17:00 -4°C° 0 mm 4 m/s 757 mmHg 89%
    18:00 -4°C° 0 mm 4 m/s 758 mmHg 90%
    19:00 -4°C° 0 mm 3 m/s 758 mmHg 91%
    20:00 -4°C° 0 mm 3 m/s 758 mmHg 92%
    21:00 -5°C° 0 mm 3 m/s 758 mmHg 92%
    22:00 -5°C° 0 mm 3 m/s 758 mmHg 92%
    23:00 -5°C° 0 mm 3 m/s 758 mmHg 93%

    21 Novembre, Mercredi

    Heure Température Précipitation Vent Pression Humidité
    00:00 -5°C° 0 mm 3 m/s 758 mmHg 93%
    01:00 -4°C° 0 mm 2 m/s 758 mmHg 93%
    02:00 -4°C° 0 mm 2 m/s 758 mmHg 93%
    03:00 -4°C° 0 mm 2 m/s 758 mmHg 93%
    04:00 -5°C° 0 mm 2 m/s 758 mmHg 93%
    05:00 -6°C° 0 mm 3 m/s 758 mmHg 93%
    06:00 -6°C° 0 mm 3 m/s 758 mmHg 92%
    07:00 -6°C° 0 mm 3 m/s 758 mmHg 92%
    08:00 -5°C° 0 mm 2 m/s 759 mmHg 92%
    09:00 -4°C° 0 mm 3 m/s 759 mmHg 87%
    10:00 -2°C° 0 mm 3 m/s 759 mmHg 82%
    11:00 -1°C° 0 mm 3 m/s 759 mmHg 77%
    12:00 -1°C° 0 mm 3 m/s 759 mmHg 76%
    13:00 -1°C° 0 mm 3 m/s 759 mmHg 75%
    14:00 -1°C° 0 mm 3 m/s 758 mmHg 74%
    15:00 -2°C° 0 mm 3 m/s 758 mmHg 77%
    16:00 -2°C° 0 mm 3 m/s 758 mmHg 80%
    17:00 -3°C° 0 mm 2 m/s 758 mmHg 84%
    18:00 -4°C° 0 mm 3 m/s 758 mmHg 84%
    19:00 -5°C° 0 mm 3 m/s 759 mmHg 84%
    20:00 -5°C° 0 mm 3 m/s 759 mmHg 85%
    21:00 -5°C° 0 mm 3 m/s 759 mmHg 85%
    22:00 -4°C° 0 mm 2 m/s 759 mmHg 85%
    23:00 -4°C° 0 mm 2 m/s 759 mmHg 86%

    22 Novembre, Jeudi

    Heure Température Précipitation Vent Pression Humidité
    00:00 -5°C° 0 mm 2 m/s 759 mmHg 86%
    01:00 -5°C° 0 mm 2 m/s 759 mmHg 87%
    02:00 -5°C° 0 mm 2 m/s 759 mmHg 88%
    03:00 -5°C° 0 mm 2 m/s 759 mmHg 89%
    04:00 -5°C° 0 mm 2 m/s 759 mmHg 90%
    05:00 -6°C° 0 mm 2 m/s 759 mmHg 91%
    06:00 -6°C° 0 mm 2 m/s 759 mmHg 91%
    07:00 -6°C° 0 mm 2 m/s 759 mmHg 92%
    08:00 -6°C° 0 mm 2 m/s 759 mmHg 93%
    09:00 -5°C° 0 mm 2 m/s 759 mmHg 89%
    10:00 -4°C° 0 mm 2 m/s 759 mmHg 85%
    11:00 -4°C° 0 mm 3 m/s 760 mmHg 81%
    12:00 -2°C° 0 mm 3 m/s 760 mmHg 80%
    13:00 -2°C° 0 mm 3 m/s 759 mmHg 80%
    14:00 -2°C° 0 mm 3 m/s 759 mmHg 79%
    15:00 -4°C° 0 mm 3 m/s 759 mmHg 83%
    16:00 -4°C° 0 mm 3 m/s 759 mmHg 86%
    17:00 -5°C° 0 mm 3 m/s 759 mmHg 90%
    18:00 -5°C° 0 mm 3 m/s 760 mmHg 90%
    19:00 -6°C° 0 mm 3 m/s 760 mmHg 90%
    20:00 -6°C° 0 mm 3 m/s 760 mmHg 90%
    21:00 -6°C° 0 mm 3 m/s 760 mmHg 91%
    22:00 -6°C° 0 mm 3 m/s 760 mmHg 91%
    23:00 -6°C° 0 mm 3 m/s 761 mmHg 92%

    23 Novembre, Vendredi

    Heure Température Précipitation Vent Pression Humidité
    00:00 -6°C° 0 mm 3 m/s 761 mmHg 93%
    01:00 -7°C° 0 mm 3 m/s 761 mmHg 93%
    02:00 -7°C° 0 mm 3 m/s 761 mmHg 94%
    03:00 -6°C° 0 mm 2 m/s 761 mmHg 95%
    04:00 -6°C° 0 mm 2 m/s 761 mmHg 95%
    05:00 -6°C° 0 mm 2 m/s 761 mmHg 96%
    06:00 -6°C° 0 mm 2 m/s 762 mmHg 96%
    07:00 -6°C° 0 mm 2 m/s 762 mmHg 95%
    08:00 -6°C° 0 mm 2 m/s 762 mmHg 95%
    09:00 -5°C° 0 mm 2 m/s 763 mmHg 91%
    10:00 -4°C° 0 mm 2 m/s 763 mmHg 87%
    11:00 -3°C° 0 mm 2 m/s 763 mmHg 83%
    12:00 -3°C° 0 mm 2 m/s 763 mmHg 82%
    13:00 -1°C° 0 mm 1 m/s 763 mmHg 81%
    14:00 0°C° 0 mm 1 m/s 763 mmHg 79%
    15:00 -1°C° 0 mm 1 m/s 763 mmHg 83%
    16:00 -2°C° 0 mm 1 m/s 763 mmHg 86%
    17:00 -2°C° 0 mm 1 m/s 763 mmHg 89%
    18:00 -3°C° 0 mm 1 m/s 762 mmHg 90%
    19:00 -4°C° 0 mm 0 m/s 762 mmHg 91%
    20:00 -4°C° 0 mm 0 m/s 762 mmHg 91%
    21:00 -4°C° 0 mm 0 m/s 762 mmHg 92%
    22:00 -3°C° 0 mm 1 m/s 762 mmHg 92%
    23:00 -3°C° 0 mm 1 m/s 762 mmHg 92%
    Voir plus